Location: Unspecified
(0.0000°N, 0.0000°E)
Time: 14:56:21
(UTC+00:00)

CZ-3C DEB - Pass Details

Date: 23 February 2026
Orbit: 380 x 28980 km, 20.3° (Epoch: 21 March)

Event Time Altitude Azimuth Distance (km) Brightness Sun altitude
Rises 12:36:42 0° 240° (WSW) 5,168 ? 78.7°
Reaches altitude 10° 12:38:42 10° 237° (WSW) 4,793 ? 78.4°
Maximum altitude 12:56:49 73° 150° (SSE) 6,615 ? 75.5°
Enters shadow 19:42:36 21° 66° (ENE) 12,930 ? -22.0°
